Location: Belvedere Heights
(33.9836°N, 117.3109°W)
Time: 17:34:24
(UTC+00:00)

Tiangong - Visible Passes

Search period start: 27 February 2024 00:00
Search period end: 08 March 2024 00:00
Orbit: 375 x 385 km, 41.5° (Epoch: 26 February)

Date Brightness Start Highest point End Pass type
(mag) Time Alt. Az. Time Alt. Az. Time Alt. Az.
27 Feb -0.5 02:16:50 10° SSW 02:19:14 21° SE 02:21:18 12° E visible
27 Feb 0.9 03:52:46 10° W 03:53:27 15° W 03:53:27 15° W visible
28 Feb -2.3 02:51:37 10° WSW 02:54:42 82° SSE 02:55:40 41° ENE visible
29 Feb -0.6 03:27:29 10° W 03:29:52 32° NW 03:29:52 32° NW visible
01 Mar -1.7 02:26:00 10° WSW 02:29:04 56° NNW 02:31:47 13° NE visible
01 Mar 1.3 04:03:43 10° WNW 04:03:54 11° WNW 04:03:54 11° WNW visible
02 Mar -0.5 03:02:01 10° WNW 03:04:41 25° NNW 03:05:40 21° NNE visible
03 Mar 0.4 03:38:01 10° NW 03:39:25 17° NNW 03:39:25 17° NNW visible
04 Mar -0.2 02:36:15 10° WNW 02:38:43 21° N 02:40:58 11° NE visible
05 Mar -0.3 03:11:53 10° NW 03:14:18 20° N 03:14:31 20° N visible
06 Mar -0.1 02:10:05 10° NW 02:12:28 20° N 02:14:51 10° NE visible
06 Mar 0.5 03:46:57 10° NW 03:47:59 17° NW 03:47:59 17° NW visible
07 Mar -0.4 02:45:20 10° NW 02:47:52 22° N 02:49:19 17° NE visible
